Weather History for LKKV - December, 2013

Change the Weather History Date:

Monday, December 9, 2013

  Actual Average (EDQM) Record (EDQM)
Temperature  
Mean Temperature 38 °F -  
Max Temperature 39 °F 33 °F 46 °F (2000)
Min Temperature 37 °F 27 °F 10 °F (1998)
Degree Days  
Heating Degree Days 27    
Moisture  
Dew Point 36 °F    
Average Humidity 94    
Maximum Humidity 100    
Minimum Humidity 93    
Precipitation  
Precipitation 0.00 in - - ()
Sea Level Pressure  
Sea Level Pressure 30.25 in    
Wind  
Wind Speed 12 mph ()    
Max Wind Speed 16 mph    
Max Gust Speed 29 mph    
Visibility 5.0 miles    
Events Rain    
Averages and records for this station are not official NWS values.
T = Trace of Precipitation, MM = Missing Value Source: Averaged Metar Reports

Daily Weather History Graph

Daily Weather History Graph

Search for Another Location

Airport or City:

Trip Planner

Search our weather history database for the weather conditions in past years. The results will help you decide how hot, cold, wet, or windy it might be!

Date:

Astronomy

Dec. 09, 2013 Rise Set
Actual Time 7:55 AM CET 4:05 PM CET
Civil Twilight 7:17 AM CET 4:44 PM CET
Nautical Twilight 6:35 AM CET 5:25 PM CET
Astronomical Twilight 5:56 AM CET 6:04 PM CET
Moon 12:05 PM CET (12/9) No Moon Set
Length of Visible Light 9h 26m
Length of Day
8h 10m
Waxing Crescent, 48% of the Moon is Illuminated
Dec 9
Waxing Crescent
Dec 9
First Quarter
Dec 17
Full
Dec 25
Last Quarter
Jan 1
New

Hourly Weather History & Observations

Time (CET) Temp. Windchill Dew Point Humidity Pressure Visibility Wind Dir Wind Speed Gust Speed Precip Events Conditions
12:00 AM 37.4 °F 29.3 °F 35.6 °F 93% 30.18 in 6.2 mi WSW 12.7 mph 25.3 mph N/A   Overcast
1:00 AM 37.4 °F 29.8 °F 35.6 °F 93% 30.18 in 6.2 mi WSW 11.5 mph - N/A Rain Light Rain
2:00 AM 37.4 °F 29.3 °F 35.6 °F 93% 30.18 in 6.2 mi WSW 12.7 mph - N/A Rain Light Rain
3:00 AM 37.4 °F 28.5 °F 35.6 °F 93% 30.18 in 6.2 mi WSW 15.0 mph - N/A Rain Light Rain
4:00 AM 37.4 °F 28.5 °F 37.4 °F 100% 30.18 in 6.2 mi West 15.0 mph 26.5 mph N/A Rain Light Rain
5:00 AM 37.4 °F 28.9 °F 35.6 °F 93% 30.18 in 6.2 mi WSW 13.8 mph - N/A Rain Light Rain
6:00 AM 37.4 °F 28.5 °F 35.6 °F 93% 30.15 in 6.2 mi WSW 15.0 mph 28.8 mph N/A Rain Light Rain
7:00 AM 37.4 °F 28.5 °F 35.6 °F 93% 30.15 in 6.2 mi WSW 15.0 mph - N/A Rain Light Rain
7:30 AM 37.4 °F 28.2 °F 35.6 °F 93% 30.18 in 6.2 mi WSW 16.1 mph - N/A Rain Light Rain
8:00 AM 37.4 °F 28.5 °F 35.6 °F 93% 30.18 in 6.2 mi WSW 15.0 mph - N/A Rain Light Rain
8:30 AM 37.4 °F 28.5 °F 35.6 °F 93% 30.18 in 6.2 mi WSW 15.0 mph - N/A Rain Light Rain
9:00 AM 37.4 °F 28.9 °F 35.6 °F 93% 30.18 in 6.2 mi WSW 13.8 mph 26.5 mph N/A Rain Light Rain
9:30 AM 37.4 °F 29.8 °F 35.6 °F 93% 30.21 in 6.2 mi WSW 11.5 mph 23.0 mph N/A Rain Light Rain
10:00 AM 37.4 °F 29.3 °F 35.6 °F 93% 30.21 in 6.2 mi WSW 12.7 mph - N/A Rain Light Rain
10:30 AM 37.4 °F 28.9 °F 35.6 °F 93% 30.21 in 6.2 mi WSW 13.8 mph - N/A Rain Light Rain
11:00 AM 37.4 °F 28.5 °F 35.6 °F 93% 30.21 in 6.2 mi WSW 15.0 mph - N/A Rain Light Rain
11:30 AM 37.4 °F 28.5 °F 35.6 °F 93% 30.21 in 6.2 mi West 15.0 mph - N/A Rain Light Rain
11:33 AM 37.4 °F 28.9 °F 35.6 °F 93% 30.21 in 1.4 mi West 13.8 mph - N/A Rain Light Rain
12:00 PM 37.4 °F 28.9 °F 35.6 °F 93% 30.21 in 3.7 mi West 13.8 mph - N/A Rain Light Rain
12:30 PM 37.4 °F 28.5 °F 35.6 °F 93% 30.21 in 4.3 mi West 15.0 mph - N/A Rain Light Rain
1:00 PM 37.4 °F 28.9 °F 35.6 °F 93% 30.21 in 3.7 mi WSW 13.8 mph - N/A Rain Light Rain
1:30 PM 37.4 °F 28.9 °F 35.6 °F 93% 30.24 in 1.6 mi West 13.8 mph - N/A Rain Light Rain
2:00 PM 37.4 °F 29.3 °F 35.6 °F 93% 30.24 in 1.7 mi WSW 12.7 mph - N/A Rain Light Rain
2:30 PM 37.4 °F 29.3 °F 37.4 °F 100% 30.24 in 3.7 mi West 12.7 mph - N/A Rain Light Rain
3:00 PM 37.4 °F 29.8 °F 37.4 °F 100% 30.27 in 3.1 mi WSW 11.5 mph - N/A Rain Light Rain
3:30 PM 37.4 °F 30.3 °F 37.4 °F 100% 30.27 in - WSW 10.4 mph - N/A Rain Light Rain
4:00 PM 37.4 °F 30.3 °F 37.4 °F 100% 30.30 in - WSW 10.4 mph - N/A Rain Light Rain
4:30 PM 37.4 °F 29.8 °F 37.4 °F 100% 30.30 in 4.3 mi West 11.5 mph - N/A   Light Drizzle
5:00 PM 39.2 °F 32.5 °F 37.4 °F 93% 30.33 in 4.3 mi West 10.4 mph - N/A   Light Drizzle
5:30 PM 39.2 °F 32.0 °F 37.4 °F 93% 30.33 in 6.2 mi West 11.5 mph - N/A   Light Drizzle
6:00 PM 39.2 °F 32.5 °F 37.4 °F 93% 30.33 in 6.2 mi West 10.4 mph - N/A   Overcast
6:30 PM 39.2 °F 32.5 °F 37.4 °F 93% 30.33 in 3.7 mi West 10.4 mph - N/A   Overcast
7:00 PM 39.2 °F 31.6 °F 37.4 °F 93% 30.33 in 3.7 mi West 12.7 mph - N/A   Light Drizzle
7:30 PM 39.2 °F 31.6 °F 37.4 °F 93% 30.36 in 4.3 mi West 12.7 mph - N/A   Light Drizzle
8:00 PM 39.2 °F 33.0 °F 37.4 °F 93% 30.36 in 3.7 mi West 9.2 mph - N/A   Overcast
9:00 PM 39.2 °F 32.0 °F 37.4 °F 93% 30.39 in 5.0 mi West 11.5 mph - N/A   Overcast
10:00 PM 39.2 °F 31.6 °F 37.4 °F 93% 30.39 in 5.0 mi West 12.7 mph - N/A   Overcast
11:00 PM 39.2 °F 33.6 °F 37.4 °F 93% 30.39 in 5.0 mi West 8.1 mph - N/A   Overcast